Location: Bovenkerk
(52.2915°N, 4.8336°E)
Time: 13:52:58
(UTC+00:00)

Cosmos 1535 Rocket - Visible Passes

Search period start: 06 August 2020 00:00
Search period end: 16 August 2020 00:00
Orbit: 947 x 1005 km, 83.0° (Epoch: 05 August)

Date Brightness Start Highest point End Pass type
(mag) Time Alt. Az. Time Alt. Az. Time Alt. Az.
06 Aug 4.4 21:04:36 10° S 21:10:45 81° E 21:16:54 10° NNE visible
06 Aug 6.5 22:52:12 10° WSW 22:56:56 23° WNW 23:01:40 10° N visible
07 Aug 4.9 21:30:19 10° SSW 21:36:24 63° WNW 21:42:30 10° N visible
07 Aug 6.9 23:19:55 10° W 23:23:11 15° NW 23:26:26 10° NNW visible
08 Aug 4.9 20:11:00 10° SSE 20:16:45 44° E 20:22:30 10° NNE visible
08 Aug 5.7 21:56:32 10° SW 22:02:14 39° WNW 22:07:58 10° N visible
09 Aug 4.4 20:36:05 10° S 20:42:12 72° E 20:48:18 10° NNE visible
09 Aug 6.4 22:23:17 10° WSW 22:28:14 25° WNW 22:33:13 10° N visible
10 Aug 4.7 21:01:42 10° SSW 21:07:49 71° WNW 21:13:57 10° N visible
10 Aug 6.9 22:50:45 10° W 22:54:26 16° NW 22:58:08 10° NNW visible
11 Aug 5.0 19:42:38 10° SSE 19:48:15 39° E 19:53:50 10° NNE visible
11 Aug 5.5 21:27:47 10° SW 21:33:36 44° WNW 21:39:26 10° N visible
11 Aug 7.4 23:20:19 10° NW 23:20:51 10° NW 23:21:23 10° NW visible
12 Aug 4.5 20:07:37 10° S 20:13:39 64° E 20:19:42 10° NNE visible
12 Aug 6.3 21:54:23 10° WSW 21:59:34 28° WNW 22:04:46 10° N visible
13 Aug 4.6 20:33:07 10° SSW 20:39:14 80° W 20:45:23 10° N visible
13 Aug 6.9 22:21:39 10° W 22:25:43 18° WNW 22:29:48 10° NNW visible
14 Aug 5.4 20:59:04 10° SSW 21:04:58 49° WNW 21:10:55 10° N visible
14 Aug 7.3 22:50:09 10° WNW 22:52:04 11° NW 22:53:59 10° NNW visible
15 Aug 4.6 19:39:10 10° S 19:45:07 57° E 19:51:06 10° NNE visible
15 Aug 6.2 21:25:32 10° SW 21:30:54 31° WNW 21:36:17 10° N visible
